Regional Weather Roundup
Issued by NWS Upton, NY

Current Version | Previous Version | Graphics & Text | Print | Product List | Glossary Off
Versions: 1 2 3 4 5 6 7 8 9 10 11 12 13 14 15 16 17 18 19 20 21 22 23 24 25 26 27 28 29 30 31 32 33 34 35 36 37 38 39 40 41 42 43 44 45 46 47 48 49

000
ASUS41 KOKX 121905
RWROKX
REGIONAL WEATHER ROUNDUP
NATIONAL WEATHER SERVICE NEW YORK NY
300 PM EDT SAT JUL 12 2014

NOTE: "FAIR" INDICATES FEW OR NO CLOUDS BELOW 12,000 FEET WITH NO
SIGNIFICANT WEATHER AND/OR OBSTRUCTIONS TO VISIBILITY.

NYZ071-072-176-178-NJZ106-104-122000-
NEW YORK CITY METRO AREA


CITY           SKY/WX    TMP DP  RH WIND       PRES   REMARKS
CENTRAL PARK   SUNNY     83  62  49 S10G18    30.21F
LAGUARDIA APRT MOSUNNY   83  57  41 S15       30.18F
KENNEDY INTL   MOSUNNY   80  64  58 S14       30.21F
NEWARK/LIBERTY MOSUNNY   84  61  45 SE10G20   30.18F
BRNX BOT. GARD   N/A     82  61  47 SE8       30.19F
TETERBORO      MOSUNNY   88  61  40 S12       30.16F
$$

NYZ177-179-078>081-122000-
LONG ISLAND NEW YORK

CITY           SKY/WX    TMP DP  RH WIND       PRES   REMARKS
FARMINGDALE    SUNNY     79  61  53 S12       30.21F
ISLIP          MOSUNNY   82  61  48 S9        30.19
SHIRLEY        MOSUNNY   80  59  48 S12       30.22S
WESTHAMPTON    MOSUNNY   79  59  50 S10       30.23S
MONTAUK POINT    N/A     76  65  68 S7        30.22F
$$

NYZ052-065-067-122000-
HUDSON VALLEY

CITY           SKY/WX    TMP DP  RH WIND       PRES   REMARKS
WHITE PLAINS   MOSUNNY   84  60  44 S13       30.18F
NEWBURGH       MOSUNNY   84  64  51 W9        30.18F
MONTGOMERY     MOSUNNY   86  66  51 S10       30.16F
POUGHKEEPSIE   PTSUNNY   85  63  47 S7        30.14F
ALBANY         PTSUNNY   85  63  47 S8        30.13F
$$

NJZ001-105-106-008-010-013-015-019>022-104-122000-
NEW JERSEY

CITY           SKY/WX    TMP DP  RH WIND       PRES   REMARKS
NEWARK/LIBERTY MOSUNNY   84  61  45 SE10G20   30.18F
TETERBORO      MOSUNNY   88  61  40 S12       30.16F
CALDWELL       PTSUNNY   86  62  44 SW5       30.17F
MORRISTOWN     MOSUNNY   86  63  45 W6        30.17
SOMERVILLE     PTSUNNY   86  62  44 S8        30.15F
LINDEN         FAIR      87  63  44 SE12      30.19F
SUSSEX         SUNNY     86  65  49 SW8       30.17F
ANDOVER          N/A     83  63  50 VRB6      30.18F
TRENTON        MOSUNNY   86  60  41 S8        30.17F
MILLVILLE      MOSUNNY   83  66  56 SE10      30.20F
ATLANTIC CITY  SUNNY     79  66  64 S10       30.21F
WRIGHTSTOWN    NOT AVBL
TOMS RIVER     MOSUNNY   86  57  37 S10       30.20F
BELMAR         SUNNY     81  57  44 S13       30.20F
$$

PAZ047>061-062-071-122000-
EASTERN PENNSYLVANIA

CITY           SKY/WX    TMP DP  RH WIND       PRES   REMARKS
PHILADELPHIA   MOSUNNY   89  62  40 S8        30.17F
ALLENTOWN      PTSUNNY   86  62  44 S9        30.16F
SCRANTON       PTSUNNY   81  65  58 S6        30.17F
$$

CTZ002-004>006-009-010-012-RIZ004-006-007-MAZ004-011-015-122000-
SOUTHERN NEW ENGLAND
 IN CT

CITY           SKY/WX    TMP DP  RH WIND       PRES   REMARKS
BRADLEY INTL   MOSUNNY   88  58  36 SW8       30.14F
HARTFORD       MOSUNNY   85  60  42 S9        30.15F
DANBURY        MOSUNNY   83  61  47 VRB5      30.19F
WTRBRY/OXFORD  MOSUNNY   81  63  54 SW7       30.22F
BRIDGEPORT     SUNNY     83  64  52 S9        30.19S
MERIDEN        MOSUNNY   86  62  44 S13       30.17F
NEW HAVEN      MOSUNNY   83  65  54 S10       30.19F
CHESTER        FAIR      81  61  50 S8        30.21S
GROTON         MOSUNNY   75  66  73 S10       30.19F
WILLIMANTIC    PTSUNNY   83  58  42 W3        30.17F

 IN RI

CITY           SKY/WX    TMP DP  RH WIND       PRES   REMARKS
PROVIDENCE     MOSUNNY   82  65  56 SE12      30.18F
BLOCK ISLAND   MOSUNNY   73  63  68 SW14      30.21F
WESTERLY       MOSUNNY   79  62  56 S12       30.21F

 IN MA

CITY           SKY/WX    TMP DP  RH WIND       PRES   REMARKS
BOSTON         MOSUNNY   75  60  59 E14       30.17S
WORCESTER      MOSUNNY   81  54  39 CALM      30.20F
WESTFIELD      NOT AVBL
PROVINCETOWN   SUNNY     81  61  50 S10       30.19S
NANTUCKET      SUNNY     70  58  65 S10       30.22S
$$

ANZ330-335-338-340-345-350-353-355-122000-
COASTAL MARINE OBSERVATIONS


STATION/POSITION TIME  SKY/WX   TEMP    WIND        PRES    VSBY  WAVE
                                AIR SEA DIR/SP/G                  HT/PER
                 (UTC)          (F)     (DEG/KT/KT) (MB)    (MI)  (FT/S)
NY HARB ENTRANCE NOT AVBL
4S FIRE IS       1800               71                N/A           2/ 7
23SW MTP         1900            71 69              1022.8          2/ 7
HUDSON CANYON    1900            71 73  120/  4/  4 1023.2          2/ 6
EXECUTION ROCKS  1900            78 69  210/ 12/ 14   N/A
WESTERN LI SOUND 1900            78     130/  4/ 10   N/A           1
CENTRAL LI SOUND 1800            75 73  110/  4/  4   N/A           1
EASTERN LI SOUND 1800            68 64  190/  6/  8   N/A
ROBBINS REEF     1900            71     170/ 19/ 21   N/A
$$


>>>>>>>>>>>>>>>>>>>>>>>>>>>> KEY <<<<<<<<<<<<<<<<<<<<<<<<<<<
>                                                          <
>     SKY/WX - SKY CONDITION/PRESENT WEATHER               <
>     TMP    - TEMPERATURE IN FAHRENHEIT                   <
>     DP     - DEWPOINT IN FAHRENHEIT                      <
>     RH     - RELATIVE HUMIDITY IN PERCENT                <
>     WIND   - DIRECTION AND SPEED IN MPH                  <
>     PRES   - MEAN SEA LEVEL PRESSURE IN INCHES OF HG     <
>     WCI    - WIND CHILL INDEX                            <
>     VSB    - VISIBILITY IN MILES                         <
>     HX     - HEAT INDEX                                  <
>     TC     - TEMPERATURE IN CELSIUS                      <
>     VRB    - VARIABLE WIND DIRECTION                     <
>                                                          <
>>>>>>>>>>>>>>>>>>>>>>>>>>>> KEY <<<<<<<<<<<<<<<<<<<<<<<<<<<




USA.gov is the U.S. government's official web portal to all federal, state and local government web resources and services.